Data supplied by UK-AIR on 8/11/2015
All Data GMT hour ending 
Status: R =Ratified P=Provisional,P*=As supplied
,,Cambridge Roadside,,,,,,,,,,,,,,,,,,,,,,,
Date,time,"Nitric oxide",status,unit,"Nitrogen dioxide",status,unit,"Nitrogen oxides as nitrogen dioxide",status,unit
 
01-01-2014,01:00,24.13858,R,ugm-3,53.39636,R,ugm-3,90.40834,R,ugm-3
01-01-2014,02:00,15.04743,R,ugm-3,38.98440,R,ugm-3,62.05680,R,ugm-3
01-01-2014,03:00,11.56808,R,ugm-3,26.64925,R,ugm-3,44.38673,R,ugm-3
01-01-2014,04:00,12.36667,R,ugm-3,23.49124,R,ugm-3,42.45320,R,ugm-3
01-01-2014,05:00,18.80928,R,ugm-3,29.96935,R,ugm-3,58.80985,R,ugm-3
01-01-2014,06:00,25.67442,R,ugm-3,36.91412,R,ugm-3,76.28102,R,ugm-3
01-01-2014,07:00,7.10057,R,ugm-3,21.23066,R,ugm-3,32.11805,R,ugm-3
01-01-2014,08:00,7.47663,R,ugm-3,14.03775,R,ugm-3,25.50175,R,ugm-3
01-01-2014,09:00,3.15037,R,ugm-3,17.91965,R,ugm-3,22.75014,R,ugm-3
01-01-2014,10:00,2.20990,R,ugm-3,13.19099,R,ugm-3,16.57946,R,ugm-3
01-01-2014,11:00,3.52674,R,ugm-3,15.78243,R,ugm-3,21.19002,R,ugm-3
01-01-2014,12:00,3.00974,R,ugm-3,18.06213,R,ugm-3,22.67699,R,ugm-3
01-01-2014,13:00,4.27886,R,ugm-3,16.56129,R,ugm-3,23.12213,R,ugm-3
01-01-2014,14:00,3.15068,R,ugm-3,15.09441,R,ugm-3,19.92538,R,ugm-3
01-01-2014,15:00,4.84327,R,ugm-3,15.39849,R,ugm-3,22.82473,R,ugm-3
01-01-2014,16:00,7.05348,R,ugm-3,16.39634,R,ugm-3,27.21153,R,ugm-3
01-01-2014,17:00,3.33840,R,ugm-3,13.91487,R,ugm-3,19.03368,R,ugm-3
01-01-2014,18:00,2.82108,R,ugm-3,12.62633,R,ugm-3,16.95192,R,ugm-3
01-01-2014,19:00,2.63336,R,ugm-3,10.68323,R,ugm-3,14.72099,R,ugm-3
01-01-2014,20:00,1.92801,R,ugm-3,9.45970,R,ugm-3,12.41595,R,ugm-3
01-01-2014,21:00,1.83416,R,ugm-3,9.67821,R,ugm-3,12.49054,R,ugm-3
01-01-2014,22:00,1.88093,R,ugm-3,9.38368,R,ugm-3,12.26773,R,ugm-3
01-01-2014,23:00,4.51429,R,ugm-3,13.44918,R,ugm-3,20.37099,R,ugm-3
01-01-2014,24:00,5.78404,R,ugm-3,12.76689,R,ugm-3,21.63563,R,ugm-3
02-01-2014,01:00,2.75695,R,ugm-3,10.73231,R,ugm-3,14.95958,R,ugm-3
02-01-2014,02:00,2.81973,R,ugm-3,10.33834,R,ugm-3,14.66186,R,ugm-3
02-01-2014,03:00,1.64488,R,ugm-3,8.47429,R,ugm-3,10.99640,R,ugm-3
02-01-2014,04:00,0.89307,R,ugm-3,6.06071,R,ugm-3,7.43006,R,ugm-3
02-01-2014,05:00,0.89276,R,ugm-3,6.28400,R,ugm-3,7.65287,R,ugm-3
02-01-2014,06:00,1.22173,R,ugm-3,7.93401,R,ugm-3,9.80730,R,ugm-3
02-01-2014,07:00,3.43039,R,ugm-3,16.73246,R,ugm-3,21.99232,R,ugm-3
02-01-2014,08:00,18.93744,R,ugm-3,35.75275,R,ugm-3,64.78976,R,ugm-3
02-01-2014,09:00,72.97859,R,ugm-3,61.51843,R,ugm-3,173.41737,R,ugm-3
02-01-2014,10:00,89.56705,R,ugm-3,61.04843,R,ugm-3,198.38267,R,ugm-3
02-01-2014,11:00,62.49940,R,ugm-3,55.66762,R,ugm-3,151.49869,R,ugm-3
02-01-2014,12:00,72.93181,R,ugm-3,56.83472,R,ugm-3,168.66194,R,ugm-3
02-01-2014,13:00,77.44299,R,ugm-3,50.73528,R,ugm-3,169.47953,R,ugm-3
02-01-2014,14:00,61.84113,R,ugm-3,54.81990,R,ugm-3,149.64165,R,ugm-3
02-01-2014,15:00,66.72899,R,ugm-3,48.81083,R,ugm-3,151.12718,R,ugm-3
02-01-2014,16:00,68.84348,R,ugm-3,63.92101,R,ugm-3,169.47953,R,ugm-3
02-01-2014,17:00,133.17547,R,ugm-3,65.80865,R,ugm-3,270.00818,R,ugm-3
02-01-2014,18:00,131.95374,R,ugm-3,72.21457,R,ugm-3,274.54081,R,ugm-3
02-01-2014,19:00,116.63440,R,ugm-3,64.42352,R,ugm-3,243.26044,R,ugm-3
02-01-2014,20:00,66.44648,R,ugm-3,58.01138,R,ugm-3,159.89456,R,ugm-3
02-01-2014,21:00,35.57300,R,ugm-3,53.63654,R,ugm-3,108.18104,R,ugm-3
02-01-2014,22:00,35.94906,R,ugm-3,49.49407,R,ugm-3,104.61518,R,ugm-3
02-01-2014,23:00,16.02438,R,ugm-3,42.89451,R,ugm-3,67.46487,R,ugm-3
02-01-2014,24:00,11.70092,R,ugm-3,31.46875,R,ugm-3,49.40992,R,ugm-3
03-01-2014,01:00,8.88535,R,ugm-3,22.71030,R,ugm-3,36.33431,R,ugm-3
03-01-2014,02:00,3.87952,R,ugm-3,15.63405,R,ugm-3,21.58256,R,ugm-3
03-01-2014,03:00,7.08622,R,ugm-3,14.00906,R,ugm-3,24.87445,R,ugm-3
03-01-2014,04:00,1.68916,R,ugm-3,7.21108,R,ugm-3,9.80108,R,ugm-3
03-01-2014,05:00,7.36780,R,ugm-3,11.86993,R,ugm-3,23.16707,R,ugm-3
03-01-2014,06:00,2.06491,R,ugm-3,8.19458,R,ugm-3,11.36073,R,ugm-3
03-01-2014,07:00,3.23799,R,ugm-3,10.18263,R,ugm-3,15.14748,R,ugm-3
03-01-2014,08:00,14.59528,R,ugm-3,18.38630,R,ugm-3,40.76542,R,ugm-3
03-01-2014,09:00,41.67385,R,ugm-3,36.78742,R,ugm-3,100.68643,R,ugm-3
03-01-2014,10:00,41.90835,R,ugm-3,35.09198,R,ugm-3,99.35055,R,ugm-3
03-01-2014,11:00,41.72031,R,ugm-3,40.72621,R,ugm-3,104.69647,R,ugm-3
03-01-2014,12:00,46.74194,R,ugm-3,38.00138,R,ugm-3,109.67136,R,ugm-3
03-01-2014,13:00,50.87207,R,ugm-3,41.47017,R,ugm-3,119.47292,R,ugm-3
03-01-2014,14:00,46.36651,R,ugm-3,50.67982,R,ugm-3,121.77413,R,ugm-3
03-01-2014,15:00,53.96911,R,ugm-3,55.80436,R,ugm-3,138.55584,R,ugm-3
03-01-2014,16:00,71.23923,R,ugm-3,55.08956,R,ugm-3,164.32152,R,ugm-3
03-01-2014,17:00,71.19245,R,ugm-3,59.24447,R,ugm-3,168.40471,R,ugm-3
03-01-2014,18:00,104.13708,R,ugm-3,66.94515,R,ugm-3,226.61978,R,ugm-3
03-01-2014,19:00,128.16506,R,ugm-3,86.23797,R,ugm-3,282.75500,R,ugm-3
03-01-2014,20:00,76.91756,R,ugm-3,60.63964,R,ugm-3,178.57825,R,ugm-3
03-01-2014,21:00,20.79000,R,ugm-3,30.86584,R,ugm-3,62.74339,R,ugm-3
03-01-2014,22:00,13.18739,R,ugm-3,20.84147,R,ugm-3,41.06185,R,ugm-3
03-01-2014,23:00,17.12948,R,ugm-3,18.58328,R,ugm-3,44.84813,R,ugm-3
03-01-2014,24:00,12.67070,R,ugm-3,21.55913,R,ugm-3,40.98727,R,ugm-3
04-01-2014,01:00,28.51411,R,ugm-3,30.08873,R,ugm-3,73.80975,R,ugm-3
04-01-2014,02:00,11.25605,R,ugm-3,18.45818,R,ugm-3,35.71721,R,ugm-3
04-01-2014,03:00,9.19198,R,ugm-3,19.96602,R,ugm-3,34.06019,R,ugm-3
04-01-2014,04:00,14.96074,R,ugm-3,25.81301,R,ugm-3,48.75249,R,ugm-3
04-01-2014,05:00,13.92922,R,ugm-3,27.09821,R,ugm-3,48.45606,R,ugm-3
04-01-2014,06:00,5.15883,R,ugm-3,24.96243,R,ugm-3,32.87253,R,ugm-3
04-01-2014,07:00,4.78371,R,ugm-3,20.64018,R,ugm-3,27.97509,R,ugm-3
04-01-2014,08:00,4.22086,R,ugm-3,18.09034,R,ugm-3,24.56224,R,ugm-3
04-01-2014,09:00,19.36932,R,ugm-3,34.63681,R,ugm-3,64.33602,R,ugm-3
04-01-2014,10:00,36.15892,R,ugm-3,46.21795,R,ugm-3,101.66085,R,ugm-3
04-01-2014,11:00,32.68830,R,ugm-3,30.31695,R,ugm-3,80.43832,R,ugm-3
04-01-2014,12:00,41.31775,R,ugm-3,28.58709,R,ugm-3,91.94009,R,ugm-3
04-01-2014,13:00,50.13460,R,ugm-3,39.70398,R,ugm-3,116.57596,R,ugm-3
04-01-2014,14:00,47.55518,R,ugm-3,44.10368,R,ugm-3,117.02062,R,ugm-3
04-01-2014,15:00,124.37483,R,ugm-3,75.17081,R,ugm-3,265.87623,R,ugm-3
04-01-2014,16:00,96.47024,R,ugm-3,69.27840,R,ugm-3,217.19737,R,ugm-3
04-01-2014,17:00,73.86511,R,ugm-3,63.34965,R,ugm-3,176.60790,R,ugm-3
04-01-2014,18:00,123.90585,R,ugm-3,79.37736,R,ugm-3,269.36367,R,ugm-3
04-01-2014,19:00,159.64255,R,ugm-3,88.25088,R,ugm-3,333.03271,R,ugm-3
04-01-2014,20:00,159.31420,R,ugm-3,81.62980,R,ugm-3,325.90817,R,ugm-3
04-01-2014,21:00,61.15543,R,ugm-3,54.34321,R,ugm-3,148.11356,R,ugm-3
04-01-2014,22:00,52.80788,R,ugm-3,56.15961,R,ugm-3,137.13055,R,ugm-3
04-01-2014,23:00,27.67010,R,ugm-3,39.05038,R,ugm-3,81.47728,R,ugm-3
04-01-2014,24:00,28.74902,R,ugm-3,41.69967,R,ugm-3,85.78088,R,ugm-3
05-01-2014,01:00,37.18160,R,ugm-3,48.48953,R,ugm-3,105.50051,R,ugm-3
05-01-2014,02:00,23.99597,R,ugm-3,46.95443,R,ugm-3,83.74774,R,ugm-3
05-01-2014,03:00,22.77788,R,ugm-3,40.19549,R,ugm-3,75.12109,R,ugm-3
05-01-2014,04:00,29.15127,R,ugm-3,45.40323,R,ugm-3,90.10122,R,ugm-3
05-01-2014,05:00,20.57515,R,ugm-3,35.71259,R,ugm-3,67.26071,R,ugm-3
05-01-2014,06:00,11.71682,R,ugm-3,25.26843,R,ugm-3,43.23398,R,ugm-3
05-01-2014,07:00,2.48369,R,ugm-3,14.21179,R,ugm-3,18.02005,R,ugm-3
05-01-2014,08:00,6.98301,R,ugm-3,18.51013,R,ugm-3,29.21726,R,ugm-3
05-01-2014,09:00,16.82545,R,ugm-3,28.41067,R,ugm-3,54.20933,R,ugm-3
05-01-2014,10:00,4.17097,R,ugm-3,24.08316,R,ugm-3,30.47856,R,ugm-3
05-01-2014,11:00,25.30834,R,ugm-3,32.53354,R,ugm-3,71.33912,R,ugm-3
05-01-2014,12:00,23.19947,R,ugm-3,33.31958,R,ugm-3,68.89160,R,ugm-3
05-01-2014,13:00,25.02739,R,ugm-3,39.93539,R,ugm-3,78.31018,R,ugm-3
05-01-2014,14:00,44.75811,R,ugm-3,61.59158,R,ugm-3,130.21973,R,ugm-3
05-01-2014,15:00,63.36440,R,ugm-3,73.18133,R,ugm-3,170.33873,R,ugm-3
05-01-2014,16:00,54.64733,R,ugm-3,72.68026,R,ugm-3,156.47167,R,ugm-3
05-01-2014,17:00,38.80631,R,ugm-3,54.03243,R,ugm-3,113.53461,R,ugm-3
05-01-2014,18:00,30.69824,R,ugm-3,45.47877,R,ugm-3,92.54874,R,ugm-3
05-01-2014,19:00,41.99316,R,ugm-3,40.84048,R,ugm-3,105.22910,R,ugm-3
05-01-2014,20:00,15.79394,R,ugm-3,27.69252,R,ugm-3,51.90955,R,ugm-3
05-01-2014,21:00,6.56142,R,ugm-3,15.59739,R,ugm-3,25.65810,R,ugm-3
05-01-2014,22:00,6.18661,R,ugm-3,11.72315,R,ugm-3,21.20915,R,ugm-3
05-01-2014,23:00,11.81068,R,ugm-3,20.74967,R,ugm-3,38.85913,R,ugm-3
05-01-2014,24:00,7.40522,R,ugm-3,15.26797,R,ugm-3,26.62248,R,ugm-3
06-01-2014,01:00,9.29862,R,ugm-3,17.16469,R,ugm-3,31.42238,R,ugm-3
06-01-2014,02:00,,,,,,,,,
06-01-2014,03:00,2.20024,R,ugm-3,7.37221,R,ugm-3,10.74586,R,ugm-3
06-01-2014,04:00,2.90184,R,ugm-3,5.55533,R,ugm-3,10.00477,R,ugm-3
06-01-2014,05:00,3.37021,R,ugm-3,8.61677,R,ugm-3,13.78434,R,ugm-3
06-01-2014,06:00,1.87220,R,ugm-3,4.91082,R,ugm-3,7.78148,R,ugm-3
06-01-2014,07:00,2.90216,R,ugm-3,7.48170,R,ugm-3,11.93161,R,ugm-3
06-01-2014,08:00,8.47135,R,ugm-3,18.95192,R,ugm-3,31.94114,R,ugm-3
06-01-2014,09:00,39.45647,R,ugm-3,47.70062,R,ugm-3,108.19969,R,ugm-3
06-01-2014,10:00,66.60364,R,ugm-3,72.40343,R,ugm-3,174.52758,R,ugm-3
06-01-2014,11:00,37.11622,R,ugm-3,41.87706,R,ugm-3,98.78780,R,ugm-3
06-01-2014,12:00,39.55064,R,ugm-3,43.99898,R,ugm-3,104.64244,R,ugm-3
06-01-2014,13:00,28.41069,R,ugm-3,40.77402,R,ugm-3,84.33647,R,ugm-3
06-01-2014,14:00,43.62245,R,ugm-3,51.02120,R,ugm-3,117.90802,R,ugm-3
06-01-2014,15:00,52.51507,R,ugm-3,45.09340,R,ugm-3,125.61539,R,ugm-3
06-01-2014,16:00,52.65539,R,ugm-3,51.10343,R,ugm-3,131.84058,R,ugm-3
06-01-2014,17:00,47.74134,R,ugm-3,35.44197,R,ugm-3,108.64434,R,ugm-3
06-01-2014,18:00,64.35694,R,ugm-3,38.05253,R,ugm-3,136.73180,R,ugm-3
06-01-2014,19:00,40.48611,R,ugm-3,37.22873,R,ugm-3,99.30656,R,ugm-3
06-01-2014,20:00,33.51215,R,ugm-3,38.06544,R,ugm-3,89.45002,R,ugm-3
06-01-2014,21:00,30.79771,R,ugm-3,34.00138,R,ugm-3,81.22388,R,ugm-3
06-01-2014,22:00,19.09648,R,ugm-3,26.15296,R,ugm-3,55.43381,R,ugm-3
06-01-2014,23:00,7.25461,R,ugm-3,14.88881,R,ugm-3,26.01239,R,ugm-3
06-01-2014,24:00,6.50561,R,ugm-3,9.73797,R,ugm-3,19.71309,R,ugm-3
07-01-2014,01:00,7.29671,R,ugm-3,16.65915,R,ugm-3,27.84728,R,ugm-3
07-01-2014,02:00,5.36339,R,ugm-3,11.32838,R,ugm-3,19.55213,R,ugm-3
07-01-2014,03:00,2.57256,R,ugm-3,9.46018,R,ugm-3,13.40471,R,ugm-3
07-01-2014,04:00,3.46126,R,ugm-3,8.76451,R,ugm-3,14.07170,R,ugm-3
07-01-2014,05:00,3.78867,R,ugm-3,8.48481,R,ugm-3,14.29403,R,ugm-3
07-01-2014,06:00,1.26289,R,ugm-3,4.80277,R,ugm-3,6.73917,R,ugm-3
07-01-2014,07:00,4.25641,R,ugm-3,7.84077,R,ugm-3,14.36718,R,ugm-3
07-01-2014,08:00,14.12567,R,ugm-3,16.33466,R,ugm-3,37.99373,R,ugm-3
07-01-2014,09:00,41.34800,R,ugm-3,32.21415,R,ugm-3,95.61353,R,ugm-3
07-01-2014,10:00,31.89970,R,ugm-3,40.18354,R,ugm-3,89.09573,R,ugm-3
07-01-2014,11:00,52.48015,R,ugm-3,51.28703,R,ugm-3,131.75547,R,ugm-3
07-01-2014,12:00,34.05129,R,ugm-3,39.40324,R,ugm-3,91.61449,R,ugm-3
07-01-2014,13:00,43.96733,R,ugm-3,49.70014,R,ugm-3,117.11576,R,ugm-3
07-01-2014,14:00,,,,,,,,,
07-01-2014,15:00,50.74952,R,ugm-3,49.05276,R,ugm-3,126.86760,R,ugm-3
07-01-2014,16:00,45.13667,R,ugm-3,42.25382,R,ugm-3,111.46241,R,ugm-3
07-01-2014,17:00,58.56074,R,ugm-3,36.03915,R,ugm-3,125.83103,R,ugm-3
07-01-2014,18:00,58.37364,R,ugm-3,49.13834,R,ugm-3,138.64334,R,ugm-3
07-01-2014,19:00,48.22374,R,ugm-3,51.66619,R,ugm-3,125.60822,R,ugm-3
07-01-2014,20:00,46.72698,R,ugm-3,53.36879,R,ugm-3,125.01582,R,ugm-3
07-01-2014,21:00,25.86588,R,ugm-3,38.47472,R,ugm-3,78.13519,R,ugm-3
07-01-2014,22:00,18.84982,R,ugm-3,26.71715,R,ugm-3,55.61980,R,ugm-3
07-01-2014,23:00,13.19020,R,ugm-3,26.80417,R,ugm-3,47.02885,R,ugm-3
07-01-2014,24:00,12.11440,R,ugm-3,27.12116,R,ugm-3,45.69632,R,ugm-3
08-01-2014,01:00,15.63241,R,ugm-3,13.72984,R,ugm-3,37.69920,R,ugm-3
08-01-2014,02:00,4.28032,R,ugm-3,15.91901,R,ugm-3,22.48208,R,ugm-3
08-01-2014,03:00,3.53610,R,ugm-3,10.55604,R,ugm-3,15.97798,R,ugm-3
08-01-2014,04:00,2.51206,R,ugm-3,8.07649,R,ugm-3,11.92826,R,ugm-3
08-01-2014,05:00,2.51237,R,ugm-3,11.31578,R,ugm-3,15.16804,R,ugm-3
08-01-2014,06:00,2.00067,R,ugm-3,5.91536,R,ugm-3,8.98301,R,ugm-3
08-01-2014,07:00,3.67517,R,ugm-3,11.37364,R,ugm-3,17.00882,R,ugm-3
08-01-2014,08:00,15.86472,R,ugm-3,25.08100,R,ugm-3,49.40657,R,ugm-3
08-01-2014,09:00,50.29301,R,ugm-3,41.65234,R,ugm-3,118.76721,R,ugm-3
08-01-2014,10:00,55.36391,R,ugm-3,54.27293,R,ugm-3,139.16306,R,ugm-3
08-01-2014,11:00,55.17775,R,ugm-3,57.57725,R,ugm-3,142.18194,R,ugm-3
08-01-2014,12:00,91.97871,R,ugm-3,63.22103,R,ugm-3,204.25309,R,ugm-3
08-01-2014,13:00,62.34255,R,ugm-3,54.69081,R,ugm-3,150.28138,R,ugm-3
08-01-2014,14:00,97.93363,R,ugm-3,62.48424,R,ugm-3,212.64705,R,ugm-3
08-01-2014,15:00,97.60777,R,ugm-3,66.59182,R,ugm-3,216.25498,R,ugm-3
08-01-2014,16:00,147.57524,R,ugm-3,77.15551,R,ugm-3,303.43438,R,ugm-3
08-01-2014,17:00,194.98324,R,ugm-3,95.54611,R,ugm-3,394.51624,R,ugm-3
08-01-2014,18:00,130.40771,R,ugm-3,84.18729,R,ugm-3,284.14299,R,ugm-3
08-01-2014,19:00,115.65963,R,ugm-3,83.01780,R,ugm-3,260.36010,R,ugm-3
08-01-2014,20:00,69.08857,R,ugm-3,72.84234,R,ugm-3,178.77668,R,ugm-3
08-01-2014,21:00,43.63960,R,ugm-3,57.08191,R,ugm-3,123.99503,R,ugm-3
08-01-2014,22:00,24.75111,R,ugm-3,42.30689,R,ugm-3,80.25806,R,ugm-3
08-01-2014,23:00,13.72467,R,ugm-3,30.79221,R,ugm-3,51.83640,R,ugm-3
08-01-2014,24:00,20.98239,R,ugm-3,31.88663,R,ugm-3,64.05919,R,ugm-3
09-01-2014,01:00,11.66101,R,ugm-3,25.94243,R,ugm-3,43.82239,R,ugm-3
09-01-2014,02:00,8.88452,R,ugm-3,21.70879,R,ugm-3,35.33153,R,ugm-3
09-01-2014,03:00,6.29325,R,ugm-3,13.18908,R,ugm-3,22.83860,R,ugm-3
09-01-2014,04:00,2.26759,R,ugm-3,9.18669,R,ugm-3,12.66362,R,ugm-3
09-01-2014,05:00,4.99793,R,ugm-3,11.51516,R,ugm-3,19.17855,R,ugm-3
09-01-2014,06:00,1.99007,R,ugm-3,10.05162,R,ugm-3,13.10302,R,ugm-3
09-01-2014,07:00,3.05401,R,ugm-3,8.85918,R,ugm-3,13.54193,R,ugm-3
09-01-2014,08:00,6.20095,R,ugm-3,18.82043,R,ugm-3,28.32843,R,ugm-3
09-01-2014,09:00,29.84727,R,ugm-3,42.73529,R,ugm-3,88.50046,R,ugm-3
09-01-2014,10:00,30.44878,R,ugm-3,38.44555,R,ugm-3,85.13303,R,ugm-3
09-01-2014,11:00,39.37976,R,ugm-3,36.39057,R,ugm-3,96.77202,R,ugm-3
09-01-2014,12:00,85.56229,R,ugm-3,46.09890,R,ugm-3,177.29258,R,ugm-3
09-01-2014,13:00,82.13751,R,ugm-3,66.13664,R,ugm-3,192.07907,R,ugm-3
09-01-2014,14:00,55.43750,R,ugm-3,36.65689,R,ugm-3,121.65986,R,ugm-3
09-01-2014,15:00,43.03528,R,ugm-3,46.88972,R,ugm-3,112.87623,R,ugm-3
09-01-2014,16:00,42.11041,R,ugm-3,44.50148,R,ugm-3,109.06988,R,ugm-3
09-01-2014,17:00,57.05680,R,ugm-3,46.10607,R,ugm-3,133.59195,R,ugm-3
09-01-2014,18:00,78.29708,R,ugm-3,56.36090,R,ugm-3,176.41474,R,ugm-3
09-01-2014,19:00,80.65697,R,ugm-3,63.94157,R,ugm-3,187.61386,R,ugm-3
09-01-2014,20:00,69.08857,R,ugm-3,65.42949,R,ugm-3,171.36383,R,ugm-3
09-01-2014,21:00,59.41701,R,ugm-3,57.41994,R,ugm-3,148.52475,R,ugm-3
09-01-2014,22:00,35.16887,R,ugm-3,54.33938,R,ugm-3,108.26423,R,ugm-3
09-01-2014,23:00,20.63845,R,ugm-3,37.74940,R,ugm-3,69.39458,R,ugm-3
09-01-2014,24:00,25.45116,R,ugm-3,45.15604,R,ugm-3,84.18060,R,ugm-3
10-01-2014,01:00,21.17167,R,ugm-3,40.98743,R,ugm-3,73.45020,R,ugm-3
10-01-2014,02:00,15.09649,R,ugm-3,30.79954,R,ugm-3,53.94716,R,ugm-3
10-01-2014,03:00,9.84930,R,ugm-3,24.92179,R,ugm-3,40.02384,R,ugm-3
10-01-2014,04:00,7.68649,R,ugm-3,18.85056,R,ugm-3,30.63634,R,ugm-3
10-01-2014,05:00,6.12113,R,ugm-3,18.70377,R,ugm-3,28.08937,R,ugm-3
10-01-2014,06:00,6.30541,R,ugm-3,17.25697,R,ugm-3,26.92513,R,ugm-3
10-01-2014,07:00,8.88296,R,ugm-3,23.71118,R,ugm-3,37.33152,R,ugm-3
10-01-2014,08:00,30.23892,R,ugm-3,40.23135,R,ugm-3,86.59704,R,ugm-3
10-01-2014,09:00,143.13859,R,ugm-3,64.03815,R,ugm-3,283.51426,R,ugm-3
10-01-2014,10:00,161.73334,R,ugm-3,80.49856,R,ugm-3,328.48622,R,ugm-3
10-01-2014,11:00,146.95876,R,ugm-3,82.26762,R,ugm-3,307.60124,R,ugm-3
10-01-2014,12:00,167.80831,R,ugm-3,83.55473,R,ugm-3,340.85723,R,ugm-3
10-01-2014,13:00,126.10951,R,ugm-3,70.71947,R,ugm-3,264.08469,R,ugm-3
10-01-2014,14:00,189.25626,R,ugm-3,93.16648,R,ugm-3,383.35537,R,ugm-3
10-01-2014,15:00,111.70351,R,ugm-3,73.74265,R,ugm-3,245.01898,R,ugm-3
10-01-2014,16:00,105.58239,R,ugm-3,70.24756,R,ugm-3,232.13829,R,ugm-3
10-01-2014,17:00,101.67023,R,ugm-3,75.80959,R,ugm-3,231.70177,R,ugm-3
10-01-2014,18:00,108.89615,R,ugm-3,85.68765,R,ugm-3,252.65942,R,ugm-3
10-01-2014,19:00,108.57372,R,ugm-3,80.57888,R,ugm-3,247.05627,R,ugm-3
10-01-2014,20:00,93.20137,R,ugm-3,73.58631,R,ugm-3,216.49309,R,ugm-3
10-01-2014,21:00,52.37662,R,ugm-3,60.93799,R,ugm-3,141.24769,R,ugm-3
10-01-2014,22:00,21.21782,R,ugm-3,50.64348,R,ugm-3,83.17702,R,ugm-3
10-01-2014,23:00,15.55664,R,ugm-3,45.64277,R,ugm-3,69.49595,R,ugm-3
10-01-2014,24:00,15.51049,R,ugm-3,35.37982,R,ugm-3,59.16223,R,ugm-3
11-01-2014,01:00,24.29200,R,ugm-3,40.39838,R,ugm-3,77.64559,R,ugm-3
11-01-2014,02:00,11.10845,R,ugm-3,33.60518,R,ugm-3,50.63790,R,ugm-3
11-01-2014,03:00,7.59886,R,ugm-3,24.15679,R,ugm-3,35.80822,R,ugm-3
11-01-2014,04:00,10.80318,R,ugm-3,25.32054,R,ugm-3,41.88518,R,ugm-3
11-01-2014,05:00,9.38406,R,ugm-3,20.47953,R,ugm-3,34.86822,R,ugm-3
11-01-2014,06:00,4.66927,R,ugm-3,11.72171,R,ugm-3,18.88116,R,ugm-3
11-01-2014,07:00,3.70791,R,ugm-3,13.05042,R,ugm-3,18.73581,R,ugm-3
11-01-2014,08:00,15.28909,R,ugm-3,31.46349,R,ugm-3,54.90644,R,ugm-3
11-01-2014,09:00,30.85290,R,ugm-3,35.73937,R,ugm-3,83.04649,R,ugm-3
11-01-2014,10:00,63.94907,R,ugm-3,56.97146,R,ugm-3,155.02534,R,ugm-3
11-01-2014,11:00,75.53056,R,ugm-3,61.63844,R,ugm-3,177.45036,R,ugm-3
11-01-2014,12:00,73.10425,R,ugm-3,53.49502,R,ugm-3,165.58664,R,ugm-3
11-01-2014,13:00,82.71719,R,ugm-3,57.99848,R,ugm-3,184.82974,R,ugm-3
11-01-2014,14:00,88.85079,R,ugm-3,66.53396,R,ugm-3,202.76994,R,ugm-3
11-01-2014,15:00,57.81516,R,ugm-3,57.76802,R,ugm-3,146.41670,R,ugm-3
11-01-2014,16:00,68.80107,R,ugm-3,64.72330,R,ugm-3,170.21680,R,ugm-3
11-01-2014,17:00,112.10514,R,ugm-3,66.90355,R,ugm-3,238.79571,R,ugm-3
11-01-2014,18:00,141.63060,R,ugm-3,78.78018,R,ugm-3,295.94408,R,ugm-3
11-01-2014,19:00,189.19202,R,ugm-3,89.47918,R,ugm-3,379.56957,R,ugm-3
11-01-2014,20:00,169.96583,R,ugm-3,92.33741,R,ugm-3,352.94805,R,ugm-3
11-01-2014,21:00,127.48591,R,ugm-3,81.15407,R,ugm-3,276.62974,R,ugm-3
11-01-2014,22:00,75.57609,R,ugm-3,74.73524,R,ugm-3,190.61696,R,ugm-3
11-01-2014,23:00,38.86400,R,ugm-3,63.02644,R,ugm-3,122.61707,R,ugm-3
11-01-2014,24:00,55.98413,R,ugm-3,69.40128,R,ugm-3,155.24241,R,ugm-3
12-01-2014,01:00,53.01690,R,ugm-3,66.84315,R,ugm-3,148.13460,R,ugm-3
12-01-2014,02:00,56.17132,R,ugm-3,66.03353,R,ugm-3,152.16169,R,ugm-3
12-01-2014,03:00,48.27082,R,ugm-3,62.68649,R,ugm-3,136.70072,R,ugm-3
12-01-2014,04:00,51.09128,R,ugm-3,59.08143,R,ugm-3,137.42030,R,ugm-3
12-01-2014,05:00,73.02006,R,ugm-3,69.10675,R,ugm-3,181.06928,R,ugm-3
12-01-2014,06:00,29.98135,R,ugm-3,50.74819,R,ugm-3,96.71895,R,ugm-3
12-01-2014,07:00,14.19459,R,ugm-3,46.90932,R,ugm-3,68.67405,R,ugm-3
12-01-2014,08:00,9.05353,R,ugm-3,41.34490,R,ugm-3,55.22678,R,ugm-3
12-01-2014,09:00,26.15962,R,ugm-3,48.76971,R,ugm-3,88.88057,R,ugm-3
12-01-2014,10:00,5.77812,R,ugm-3,41.62126,R,ugm-3,50.48092,R,ugm-3
12-01-2014,11:00,22.47448,R,ugm-3,42.48332,R,ugm-3,76.94370,R,ugm-3
12-01-2014,12:00,35.71363,R,ugm-3,44.04392,R,ugm-3,98.80405,R,ugm-3
12-01-2014,13:00,32.30133,R,ugm-3,44.88972,R,ugm-3,94.41773,R,ugm-3
12-01-2014,14:00,35.07657,R,ugm-3,42.93515,R,ugm-3,96.71847,R,ugm-3
12-01-2014,15:00,27.66137,R,ugm-3,43.59066,R,ugm-3,86.00417,R,ugm-3
12-01-2014,16:00,38.53409,R,ugm-3,47.27031,R,ugm-3,106.35508,R,ugm-3
12-01-2014,17:00,39.49014,R,ugm-3,43.86271,R,ugm-3,104.41342,R,ugm-3
12-01-2014,18:00,58.46158,R,ugm-3,52.74245,R,ugm-3,142.38228,R,ugm-3
12-01-2014,19:00,47.40613,R,ugm-3,45.74700,R,ugm-3,118.43539,R,ugm-3
12-01-2014,20:00,25.20419,R,ugm-3,37.14744,R,ugm-3,75.79333,R,ugm-3
12-01-2014,21:00,13.73963,R,ugm-3,32.14626,R,ugm-3,53.21340,R,ugm-3
12-01-2014,22:00,12.78420,R,ugm-3,27.57108,R,ugm-3,47.17325,R,ugm-3
12-01-2014,23:00,12.37446,R,ugm-3,28.70232,R,ugm-3,47.67623,R,ugm-3
12-01-2014,24:00,10.28212,R,ugm-3,25.22301,R,ugm-3,40.98870,R,ugm-3
13-01-2014,01:00,7.90289,R,ugm-3,14.64529,R,ugm-3,26.76289,R,ugm-3
13-01-2014,02:00,2.47340,R,ugm-3,16.01783,R,ugm-3,19.81031,R,ugm-3
13-01-2014,03:00,3.12199,R,ugm-3,13.64282,R,ugm-3,18.42981,R,ugm-3
13-01-2014,04:00,3.25795,R,ugm-3,12.29116,R,ugm-3,17.28661,R,ugm-3
13-01-2014,05:00,4.61501,R,ugm-3,12.13912,R,ugm-3,19.21537,R,ugm-3
13-01-2014,06:00,4.34372,R,ugm-3,14.41164,R,ugm-3,21.07193,R,ugm-3
13-01-2014,07:00,4.97673,R,ugm-3,18.51300,R,ugm-3,26.14388,R,ugm-3
13-01-2014,08:00,16.24328,R,ugm-3,26.95334,R,ugm-3,51.85935,R,ugm-3
13-01-2014,09:00,84.60966,R,ugm-3,63.63270,R,ugm-3,193.36570,R,ugm-3
13-01-2014,10:00,91.35132,R,ugm-3,73.94012,R,ugm-3,214.01018,R,ugm-3
13-01-2014,11:00,126.64305,R,ugm-3,91.18704,R,ugm-3,285.37034,R,ugm-3
13-01-2014,12:00,79.09005,R,ugm-3,69.45387,R,ugm-3,190.72358,R,ugm-3
13-01-2014,13:00,58.18655,R,ugm-3,67.78904,R,ugm-3,157.00717,R,ugm-3
13-01-2014,14:00,76.05848,R,ugm-3,62.45843,R,ugm-3,179.07981,R,ugm-3
13-01-2014,15:00,51.17329,R,ugm-3,50.89880,R,ugm-3,129.36341,R,ugm-3
13-01-2014,16:00,69.22640,R,ugm-3,65.21912,R,ugm-3,171.36478,R,ugm-3
13-01-2014,17:00,56.78364,R,ugm-3,70.36900,R,ugm-3,157.43604,R,ugm-3
13-01-2014,18:00,84.88095,R,ugm-3,71.00348,R,ugm-3,201.15245,R,ugm-3
13-01-2014,19:00,105.69402,R,ugm-3,80.23463,R,ugm-3,242.29654,R,ugm-3
13-01-2014,20:00,78.27525,R,ugm-3,69.41658,R,ugm-3,189.43695,R,ugm-3
13-01-2014,21:00,27.37387,R,ugm-3,42.17397,R,ugm-3,84.14665,R,ugm-3
13-01-2014,22:00,19.32005,R,ugm-3,39.95069,R,ugm-3,69.57436,R,ugm-3
13-01-2014,23:00,13.98099,R,ugm-3,44.70851,R,ugm-3,66.14573,R,ugm-3
13-01-2014,24:00,9.95408,R,ugm-3,36.59664,R,ugm-3,51.85935,R,ugm-3
14-01-2014,01:00,15.65902,R,ugm-3,26.06993,R,ugm-3,50.08009,R,ugm-3
14-01-2014,02:00,7.97939,R,ugm-3,30.46103,R,ugm-3,42.69593,R,ugm-3
14-01-2014,03:00,4.58944,R,ugm-3,26.12045,R,ugm-3,33.15749,R,ugm-3
14-01-2014,04:00,4.00477,R,ugm-3,20.48479,R,ugm-3,26.62535,R,ugm-3
14-01-2014,05:00,5.39956,R,ugm-3,20.12141,R,ugm-3,28.40063,R,ugm-3
14-01-2014,06:00,4.81427,R,ugm-3,22.43888,R,ugm-3,29.82066,R,ugm-3
14-01-2014,07:00,9.76418,R,ugm-3,34.94233,R,ugm-3,49.91386,R,ugm-3
14-01-2014,08:00,22.90323,R,ugm-3,55.12542,R,ugm-3,90.24323,R,ugm-3
14-01-2014,09:00,114.65057,R,ugm-3,75.83445,R,ugm-3,251.62954,R,ugm-3
14-01-2014,10:00,118.43051,R,ugm-3,75.78951,R,ugm-3,257.38043,R,ugm-3
14-01-2014,11:00,168.46658,R,ugm-3,76.10603,R,ugm-3,334.41784,R,ugm-3
14-01-2014,12:00,117.39556,R,ugm-3,65.09337,R,ugm-3,245.09739,R,ugm-3
14-01-2014,13:00,102.86171,R,ugm-3,58.76491,R,ugm-3,216.48400,R,ugm-3
14-01-2014,14:00,80.99374,R,ugm-3,63.25594,R,ugm-3,187.44460,R,ugm-3
14-01-2014,15:00,65.82938,R,ugm-3,56.54450,R,ugm-3,157.48147,R,ugm-3
14-01-2014,16:00,84.14348,R,ugm-3,58.85241,R,ugm-3,187.87061,R,ugm-3
14-01-2014,17:00,156.22744,R,ugm-3,85.35774,R,ugm-3,324.90315,R,ugm-3
14-01-2014,18:00,172.65095,R,ugm-3,87.15645,R,ugm-3,351.88422,R,ugm-3
14-01-2014,19:00,148.44336,R,ugm-3,83.37639,R,ugm-3,310.98637,R,ugm-3
14-01-2014,20:00,128.37430,R,ugm-3,71.83207,R,ugm-3,268.66991,R,ugm-3
14-01-2014,21:00,60.11487,R,ugm-3,69.42471,R,ugm-3,161.59956,R,ugm-3
14-01-2014,22:00,27.98754,R,ugm-3,65.71876,R,ugm-3,108.63239,R,ugm-3
14-01-2014,23:00,25.82815,R,ugm-3,56.46274,R,ugm-3,96.06535,R,ugm-3
14-01-2014,24:00,14.39852,R,ugm-3,66.95902,R,ugm-3,89.03644,R,ugm-3
15-01-2014,01:00,13.12575,R,ugm-3,59.38440,R,ugm-3,79.51028,R,ugm-3
15-01-2014,02:00,3.69908,R,ugm-3,33.66000,R,ugm-3,39.33184,R,ugm-3
15-01-2014,03:00,5.90659,R,ugm-3,21.92442,R,ugm-3,30.98107,R,ugm-3
15-01-2014,04:00,7.56207,R,ugm-3,16.84482,R,ugm-3,28.43983,R,ugm-3
15-01-2014,05:00,5.63811,R,ugm-3,14.00811,R,ugm-3,22.65308,R,ugm-3
15-01-2014,06:00,1.65579,R,ugm-3,9.88141,R,ugm-3,12.42025,R,ugm-3
15-01-2014,07:00,6.30916,R,ugm-3,15.66051,R,ugm-3,25.33441,R,ugm-3
15-01-2014,08:00,14.54227,R,ugm-3,27.94880,R,ugm-3,50.24663,R,ugm-3
15-01-2014,09:00,92.58147,R,ugm-3,56.34894,R,ugm-3,198.30521,R,ugm-3
15-01-2014,10:00,85.42196,R,ugm-3,66.05632,R,ugm-3,197.03483,R,ugm-3
15-01-2014,11:00,66.71777,R,ugm-3,65.87224,R,ugm-3,168.17138,R,ugm-3
15-01-2014,12:00,77.09904,R,ugm-3,70.84378,R,ugm-3,189.06067,R,ugm-3
15-01-2014,13:00,63.09342,R,ugm-3,66.63102,R,ugm-3,163.37292,R,ugm-3